Back to catalog

STARLINK-30935

AliveCommunicationsVLEO
NORAD 58455·PAYLOAD·🇺🇸 United States

Launched Nov 28, 2023 from Cape Canaveral Space Force Station

Loading…

Next Passes (next 24 hours)

TLE

FreshSource: CelesTrak SupGP

Epoch: Sep 15, 2026, 03:06 UTC

1 58455C 23183U   26258.12965278 -.00090682  00000+0 -32845-2 0  2585
2 58455  43.0017  52.0268 0001355 264.6468  92.1131 15.27624020    14

Track STARLINK-30935 in real time with AllMySat

Download on the App Store